When you browse on this site, cookies collect data to enhance your experience and personalize the content and advertising you see.
Visit our Privacy Policy to learn more. By continuing to use the site, you agree to this use of cookies and data.
  • In Austria
  • List of Countries
  • For 7 days
  • Water Temperature
  • Satellite Maps
  • Weather Map
  • News
  • Weather Widgets
  • user-avatar
    Login

    Hourly Weather Chakhansur

    Today, 19 June, Wednesday

    Time Temperature Precipitation Wind Pressure Humidity
    00:00 +34°C° 0 mm 7 mps 709 mmHg 12%
    01:00 +33°C° 0 mm 6 mps 709 mmHg 13%
    02:00 +32°C° 0 mm 6 mps 709 mmHg 15%
    03:00 +30°C° 0 mm 6 mps 709 mmHg 16%
    04:00 +29°C° 0 mm 6 mps 709 mmHg 17%
    05:00 +32°C° 0 mm 7 mps 709 mmHg 15%
    06:00 +33°C° 0 mm 8 mps 710 mmHg 13%
    07:00 +35°C° 0 mm 9 mps 710 mmHg 12%
    08:00 +38°C° 0 mm 9 mps 710 mmHg 10%
    09:00 +40°C° 0 mm 9 mps 710 mmHg 8%
    10:00 +43°C° 0 mm 10 mps 710 mmHg 7%
    11:00 +45°C° 0 mm 9 mps 710 mmHg 6%
    12:00 +47°C° 0 mm 9 mps 710 mmHg 5%
    13:00 +49°C° 0 mm 9 mps 710 mmHg 4%
    14:00 +49°C° 0 mm 9 mps 709 mmHg 4%
    15:00 +49°C° 0 mm 10 mps 709 mmHg 4%
    16:00 +49°C° 0 mm 10 mps 708 mmHg 5%
    17:00 +47°C° 0 mm 9 mps 708 mmHg 5%
    18:00 +44°C° 0 mm 9 mps 709 mmHg 6%
    19:00 +41°C° 0 mm 8 mps 709 mmHg 7%
    20:00 +40°C° 0 mm 8 mps 709 mmHg 8%
    21:00 +39°C° 0 mm 8 mps 709 mmHg 10%
    22:00 +37°C° 0 mm 8 mps 709 mmHg 11%
    23:00 +35°C° 0 mm 8 mps 709 mmHg 12%

    Tomorrow, 20 June, Thursday

    Time Temperature Precipitation Wind Pressure Humidity
    00:00 +34°C° 0 mm 8 mps 709 mmHg 14%
    01:00 +33°C° 0 mm 8 mps 709 mmHg 15%
    02:00 +32°C° 0 mm 8 mps 709 mmHg 16%
    03:00 +32°C° 0 mm 7 mps 709 mmHg 16%
    04:00 +30°C° 0 mm 7 mps 709 mmHg 17%
    05:00 +32°C° 0 mm 7 mps 709 mmHg 16%
    06:00 +34°C° 0 mm 7 mps 710 mmHg 14%
    07:00 +35°C° 0 mm 7 mps 710 mmHg 13%
    08:00 +39°C° 0 mm 7 mps 711 mmHg 11%
    09:00 +41°C° 0 mm 7 mps 711 mmHg 8%
    10:00 +45°C° 0 mm 7 mps 711 mmHg 6%
    11:00 +46°C° 0 mm 7 mps 711 mmHg 6%
    12:00 +49°C° 0 mm 8 mps 711 mmHg 5%
    13:00 +50°C° 0 mm 8 mps 710 mmHg 4%
    14:00 +50°C° 0 mm 9 mps 710 mmHg 4%
    15:00 +50°C° 0 mm 9 mps 709 mmHg 4%
    16:00 +50°C° 0 mm 10 mps 709 mmHg 4%
    17:00 +48°C° 0 mm 9 mps 709 mmHg 5%
    18:00 +45°C° 0 mm 9 mps 709 mmHg 6%
    19:00 +43°C° 0 mm 8 mps 709 mmHg 7%
    20:00 +41°C° 0 mm 8 mps 709 mmHg 8%
    21:00 +40°C° 0 mm 8 mps 710 mmHg 9%
    22:00 +38°C° 0 mm 8 mps 710 mmHg 10%
    23:00 +37°C° 0 mm 8 mps 710 mmHg 11%

    Day after tomorrow, 21 June, Friday

    Time Temperature Precipitation Wind Pressure Humidity
    00:00 +35°C° 0 mm 7 mps 710 mmHg 12%
    01:00 +34°C° 0 mm 7 mps 709 mmHg 13%
    02:00 +33°C° 0 mm 7 mps 709 mmHg 14%
    03:00 +32°C° 0 mm 6 mps 709 mmHg 14%
    04:00 +32°C° 0 mm 6 mps 709 mmHg 15%
    05:00 +33°C° 0 mm 6 mps 710 mmHg 13%
    06:00 +35°C° 0 mm 7 mps 711 mmHg 12%
    07:00 +37°C° 0 mm 8 mps 712 mmHg 10%
    08:00 +40°C° 0 mm 8 mps 712 mmHg 8%
    09:00 +43°C° 0 mm 9 mps 712 mmHg 7%
    10:00 +47°C° 0 mm 9 mps 712 mmHg 5%
    11:00 +48°C° 0 mm 9 mps 712 mmHg 5%
    12:00 +49°C° 0 mm 9 mps 711 mmHg 5%
    13:00 +51°C° 0 mm 9 mps 711 mmHg 5%
    14:00 +50°C° 0 mm 9 mps 711 mmHg 5%
    15:00 +50°C° 0 mm 10 mps 710 mmHg 5%
    16:00 +50°C° 0 mm 10 mps 710 mmHg 5%
    17:00 +48°C° 0 mm 8 mps 710 mmHg 6%
    18:00 +45°C° 0 mm 7 mps 710 mmHg 6%
    19:00 +42°C° 0 mm 5 mps 710 mmHg 6%
    20:00 +41°C° 0 mm 6 mps 710 mmHg 7%
    21:00 +39°C° 0 mm 7 mps 710 mmHg 7%
    22:00 +38°C° 0 mm 7 mps 710 mmHg 8%
    23:00 +36°C° 0 mm 7 mps 710 mmHg 9%

    22 June, Saturday

    Time Temperature Precipitation Wind Pressure Humidity
    00:00 +35°C° 0 mm 7 mps 710 mmHg 10%
    01:00 +35°C° 0 mm 7 mps 710 mmHg 11%
    02:00 +34°C° 0 mm 7 mps 710 mmHg 12%
    03:00 +33°C° 0 mm 7 mps 710 mmHg 13%
    04:00 +32°C° 0 mm 7 mps 710 mmHg 14%
    05:00 +34°C° 0 mm 7 mps 710 mmHg 13%
    06:00 +35°C° 0 mm 8 mps 711 mmHg 11%
    07:00 +38°C° 0 mm 9 mps 711 mmHg 10%
    08:00 +40°C° 0 mm 9 mps 712 mmHg 8%
    09:00 +44°C° 0 mm 10 mps 712 mmHg 6%
    10:00 +48°C° 0 mm 10 mps 712 mmHg 5%
    11:00 +49°C° 0 mm 11 mps 712 mmHg 4%
    12:00 +51°C° 0 mm 11 mps 712 mmHg 4%
    13:00 +52°C° 0 mm 11 mps 711 mmHg 4%
    14:00 +51°C° 0 mm 12 mps 711 mmHg 4%
    15:00 +51°C° 0 mm 13 mps 710 mmHg 4%
    16:00 +51°C° 0 mm 13 mps 710 mmHg 4%
    17:00 +48°C° 0 mm 13 mps 710 mmHg 5%
    18:00 +46°C° 0 mm 12 mps 710 mmHg 5%
    19:00 +44°C° 0 mm 12 mps 710 mmHg 6%
    20:00 +42°C° 0 mm 12 mps 710 mmHg 7%
    21:00 +39°C° 0 mm 11 mps 711 mmHg 8%
    22:00 +38°C° 0 mm 11 mps 711 mmHg 10%
    23:00 +37°C° 0 mm 11 mps 711 mmHg 10%

    23 June, Sunday

    Time Temperature Precipitation Wind Pressure Humidity
    00:00 +37°C° 0 mm 10 mps 710 mmHg 10%
    01:00 +36°C° 0 mm 10 mps 710 mmHg 11%
    02:00 +36°C° 0 mm 10 mps 710 mmHg 11%
    03:00 +34°C° 0 mm 11 mps 710 mmHg 11%
    04:00 +34°C° 0 mm 11 mps 710 mmHg 11%
    05:00 +36°C° 0 mm 12 mps 711 mmHg 10%
    06:00 +37°C° 0 mm 13 mps 711 mmHg 10%
    07:00 +38°C° 0 mm 14 mps 712 mmHg 10%
    08:00 +41°C° 0 mm 14 mps 712 mmHg 9%
    09:00 +45°C° 0 mm 15 mps 712 mmHg 7%
    10:00 +47°C° 0 mm 15 mps 712 mmHg 6%
    11:00 +49°C° 0 mm 15 mps 712 mmHg 6%
    12:00 +50°C° 0 mm 15 mps 711 mmHg 6%
    13:00 +51°C° 0 mm 15 mps 711 mmHg 5%
    14:00 +50°C° 0 mm 16 mps 710 mmHg 5%
    15:00 +50°C° 0 mm 16 mps 710 mmHg 5%
    16:00 +49°C° 0 mm 16 mps 709 mmHg 5%
    17:00 +47°C° 0 mm 15 mps 709 mmHg 6%
    18:00 +45°C° 0 mm 14 mps 710 mmHg 7%
    19:00 +42°C° 0 mm 13 mps 710 mmHg 8%
    20:00 +39°C° 0 mm 13 mps 710 mmHg 9%
    21:00 +38°C° 0 mm 14 mps 710 mmHg 10%
    22:00 +36°C° 0 mm 14 mps 710 mmHg 11%
    23:00 +36°C° 0 mm 14 mps 710 mmHg 11%

    24 June, Monday

    Time Temperature Precipitation Wind Pressure Humidity
    00:00 +34°C° 0 mm 14 mps 710 mmHg 11%
    01:00 +33°C° 0 mm 14 mps 709 mmHg 12%
    02:00 +33°C° 0 mm 14 mps 709 mmHg 12%
    03:00 +32°C° 0 mm 14 mps 709 mmHg 12%
    04:00 +32°C° 0 mm 14 mps 709 mmHg 11%
    05:00 +32°C° 0 mm 14 mps 710 mmHg 11%
    06:00 +33°C° 0 mm 14 mps 710 mmHg 11%
    07:00 +34°C° 0 mm 14 mps 711 mmHg 10%
    08:00 +37°C° 0 mm 14 mps 711 mmHg 9%
    09:00 +41°C° 0 mm 14 mps 711 mmHg 7%
    10:00 +43°C° 0 mm 13 mps 711 mmHg 6%
    11:00 +46°C° 0 mm 13 mps 711 mmHg 5%
    12:00 +47°C° 0 mm 12 mps 710 mmHg 5%
    13:00 +48°C° 0 mm 12 mps 710 mmHg 4%
    14:00 +48°C° 0 mm 13 mps 710 mmHg 5%
    15:00 +48°C° 0 mm 14 mps 709 mmHg 5%
    16:00 +49°C° 0 mm 15 mps 709 mmHg 5%
    17:00 +46°C° 0 mm 14 mps 709 mmHg 6%
    18:00 +43°C° 0 mm 13 mps 709 mmHg 7%
    19:00 +41°C° 0 mm 12 mps 709 mmHg 8%
    20:00 +38°C° 0 mm 12 mps 709 mmHg 9%
    21:00 +37°C° 0 mm 13 mps 709 mmHg 10%
    22:00 +36°C° 0 mm 13 mps 710 mmHg 11%
    23:00 +34°C° 0 mm 13 mps 709 mmHg 11%
    Show more